TimeEDT,TemperatureF,Dew PointF,Humidity,Sea Level PressureIn,VisibilityMPH,Wind Direction,Wind SpeedMPH,Gust SpeedMPH,PrecipitationIn,Events,Conditions,WindDirDegrees,DateUTC
12:54 AM,66.9,-9999,N/A,30.13,3.0,ESE,3.5,-,0.03,Rain,Rain,110,2013-08-07 04:54:00
1:54 AM,66.9,-9999,N/A,30.13,10.0,Calm,Calm,-,0.00,,Overcast,0,2013-08-07 05:54:00
2:54 AM,66.9,-9999,N/A,30.13,10.0,Calm,Calm,-,N/A,,Overcast,0,2013-08-07 06:54:00
3:25 AM,66.2,-9999,N/A,30.13,10.0,Calm,Calm,-,N/A,,Overcast,0,2013-08-07 07:25:00
3:54 AM,66.9,-9999,N/A,30.14,10.0,Calm,Calm,-,N/A,,Overcast,0,2013-08-07 07:54:00
4:09 AM,66.2,-9999,N/A,30.13,10.0,ESE,4.6,-,N/A,,Overcast,120,2013-08-07 08:09:00
4:24 AM,66.2,-9999,N/A,30.13,10.0,Calm,Calm,-,N/A,,Overcast,0,2013-08-07 08:24:00
4:54 AM,66.9,-9999,N/A,30.14,10.0,Calm,Calm,-,N/A,,Overcast,0,2013-08-07 08:54:00
5:54 AM,66.9,-9999,N/A,30.14,10.0,Calm,Calm,-,N/A,,Overcast,0,2013-08-07 09:54:00
6:26 AM,66.2,-9999,N/A,30.14,10.0,Calm,Calm,-,N/A,,Overcast,0,2013-08-07 10:26:00
6:54 AM,68.0,-9999,N/A,30.14,10.0,ESE,3.5,-,N/A,,Overcast,110,2013-08-07 10:54:00
7:07 AM,68.0,-9999,N/A,30.14,10.0,ESE,4.6,-,N/A,,Overcast,120,2013-08-07 11:07:00
7:54 AM,69.1,-9999,N/A,30.14,10.0,ESE,4.6,-,N/A,,Overcast,110,2013-08-07 11:54:00
8:54 AM,70.0,-9999,N/A,30.13,10.0,SE,4.6,-,N/A,,Overcast,130,2013-08-07 12:54:00
9:54 AM,72.0,71.1,97,30.14,10.0,SSE,3.5,-,N/A,,Overcast,160,2013-08-07 13:54:00
10:54 AM,73.9,73.9,100,30.13,10.0,SSE,8.1,-,N/A,,Overcast,150,2013-08-07 14:54:00
11:06 AM,75.2,66.2,73,30.13,10.0,Variable,6.9,-,N/A,,Overcast,0,2013-08-07 15:06:00
11:14 AM,75.2,64.4,69,30.12,10.0,SSE,6.9,-,N/A,,Overcast,160,2013-08-07 15:14:00
11:39 AM,77.0,66.2,69,30.12,10.0,Variable,5.8,-,N/A,,Overcast,0,2013-08-07 15:39:00
11:54 AM,78.1,66.0,66,30.12,10.0,Variable,6.9,-,N/A,,Mostly Cloudy,0,2013-08-07 15:54:00
12:54 PM,75.9,66.0,71,30.12,10.0,SSE,5.8,-,N/A,,Overcast,160,2013-08-07 16:54:00
1:54 PM,75.9,66.9,74,30.12,10.0,SSE,5.8,-,0.00,,Overcast,160,2013-08-07 17:54:00
2:54 PM,73.9,69.1,85,30.12,10.0,South,3.5,-,0.00,,Overcast,170,2013-08-07 18:54:00
3:54 PM,75.9,68.0,76,30.10,10.0,SSE,6.9,-,N/A,,Overcast,150,2013-08-07 19:54:00
4:04 PM,75.2,69.8,83,30.10,10.0,SSE,4.6,-,N/A,,Overcast,160,2013-08-07 20:04:00
4:18 PM,75.2,69.8,83,30.09,10.0,South,5.8,-,N/A,,Overcast,190,2013-08-07 20:18:00
4:54 PM,75.9,69.1,79,30.09,10.0,South,5.8,-,N/A,,Overcast,170,2013-08-07 20:54:00
5:54 PM,75.0,68.0,79,30.09,10.0,SSE,6.9,-,N/A,,Overcast,150,2013-08-07 21:54:00
6:39 PM,75.2,68.0,78,30.08,10.0,SE,5.8,-,N/A,,Overcast,140,2013-08-07 22:39:00
6:54 PM,75.0,68.0,79,30.08,10.0,SE,9.2,-,N/A,,Overcast,140,2013-08-07 22:54:00
7:54 PM,73.9,70.0,87,30.07,10.0,SSE,4.6,-,0.00,,Overcast,160,2013-08-07 23:54:00
8:19 PM,73.4,69.8,88,30.07,10.0,SSE,4.6,-,N/A,,Overcast,160,2013-08-08 00:19:00
8:39 PM,73.4,69.8,88,30.08,10.0,Variable,5.8,-,N/A,,Overcast,0,2013-08-08 00:39:00
8:54 PM,73.9,69.1,85,30.08,10.0,SSE,4.6,-,N/A,,Overcast,160,2013-08-08 00:54:00
9:47 PM,73.4,69.8,88,30.09,10.0,SSE,3.5,-,N/A,,Mostly Cloudy,150,2013-08-08 01:47:00
9:54 PM,73.0,69.1,87,30.09,10.0,South,4.6,-,N/A,,Mostly Cloudy,170,2013-08-08 01:54:00
10:54 PM,73.0,69.1,87,30.08,10.0,Calm,Calm,-,N/A,,Mostly Cloudy,0,2013-08-08 02:54:00
11:54 PM,73.9,69.1,85,30.08,10.0,Variable,3.5,-,N/A,,Overcast,0,2013-08-08 03:54:00